Flagstaff, AZ

7:01 PM MST on July 25, 2017 (GMT -0700)
Flagstaff Pulliam

Weather History for KFLG - February, 2014

Change the Weather History Date:

Wednesday, February 5, 2014

  Actual Average Record
Temperature  
Mean Temperature 30 °F 31 °F  
Max Temperature 38 °F 44 °F 67 °F (1963)
Min Temperature 21 °F 18 °F -21 °F (1985)
Degree Days  
Heating Degree Days 35 34  
Month to date heating degree days 197 170  
Since 1 July heating degree days 4016 4086  
Cooling Degree Days 0 0  
Month to date cooling degree days 0 0  
Year to date cooling degree days 0 0  
Moisture  
Dew Point 20 °F    
Average Humidity 68    
Maximum Humidity 88    
Minimum Humidity 47    
Precipitation  
Precipitation T in 0.07 in 2.29 in (1976)
Month to date precipitation 0.03 0.35  
Year to date precipitation 0.20 2.40  
Snow  
Snow T in 0.80 in 19.90 in (1976)
Month to date snowfall 0.6 4.0  
Since 1 July snowfall 32.0 56.3  
Snow Depth T in    
Sea Level Pressure  
Sea Level Pressure 30.00 in    
Wind  
Wind Speed 4 mph (SW)    
Max Wind Speed 14 mph    
Max Gust Speed 17 mph    
Visibility 10 miles    
Events Snow    
T = Trace of Precipitation, MM = Missing Value Source: NWS Daily Summary

Daily Weather History Graph

Daily Weather History Graph

Search for Another Location

Airport or City:

Trip Planner

Search our weather history database for the weather conditions in past years. The results will help you decide how hot, cold, wet, or windy it might be!

Date:

Astronomy

Feb. 05, 2014 Rise Set
Actual Time 7:22 AM MST 5:59 PM MST
Civil Twilight 6:56 AM MST 6:25 PM MST
Nautical Twilight 6:25 AM MST 6:55 PM MST
Astronomical Twilight 5:56 AM MST 7:25 PM MST
Moon 10:55 AM MST (2/5) No Moon Set
Length of Visible Light 11h 29m
Length of Day
10h 37m
Waxing Crescent, 40% of the Moon is Illuminated
Feb 5
Waxing Crescent
Feb 6
First Quarter
Feb 14
Full
Feb 22
Last Quarter
Mar 1
New

Hourly Weather History & Observations

Time (MST) Temp. Windchill Dew Point Humidity Pressure Visibility Wind Dir Wind Speed Gust Speed Precip Events Conditions
12:13 AM 28.0 °F 22.8 °F 21.9 °F 78% 30.03 in 10.0 mi WSW 4.6 mph - N/A   Mostly Cloudy
12:57 AM 28.0 °F 21.7 °F 21.9 °F 78% 30.01 in 10.0 mi WSW 5.8 mph - N/A   Overcast
1:57 AM 27.0 °F 21.6 °F 21.9 °F 81% 30.01 in 10.0 mi WSW 4.6 mph - N/A   Mostly Cloudy
2:04 AM 27.0 °F 20.5 °F 21.9 °F 81% 30.04 in 10.0 mi WSW 5.8 mph - N/A   Scattered Clouds
2:57 AM 26.1 °F - 21.9 °F 84% 30.01 in 10.0 mi Calm Calm - N/A   Mostly Cloudy
3:57 AM 26.1 °F - 21.0 °F 81% 30.00 in 10.0 mi Calm Calm - N/A   Mostly Cloudy
4:07 AM 25.0 °F - 21.0 °F 85% 30.03 in 10.0 mi Calm Calm - N/A   Mostly Cloudy
4:57 AM 25.0 °F 20.7 °F 21.0 °F 85% 30.00 in 10.0 mi NNW 3.5 mph - N/A   Overcast
5:57 AM 25.0 °F - 21.0 °F 85% 30.02 in 10.0 mi Calm Calm - N/A   Overcast
6:57 AM 24.1 °F 19.7 °F 19.9 °F 84% 30.03 in 10.0 mi ENE 3.5 mph - N/A   Overcast
7:32 AM 24.1 °F 19.7 °F 19.0 °F 81% 30.02 in 10.0 mi NE 3.5 mph - N/A   Overcast
7:54 AM 24.8 °F 20.5 °F 19.4 °F 80% 30.02 in 10.0 mi ENE 3.5 mph - N/A   Scattered Clouds
7:57 AM 24.1 °F - 19.0 °F 81% 30.03 in 10.0 mi Calm Calm - N/A   Scattered Clouds
8:57 AM 27.0 °F 23.0 °F 18.0 °F 69% 30.04 in 10.0 mi Variable 3.5 mph - N/A   Mostly Cloudy
9:57 AM 28.9 °F - 18.0 °F 64% 30.04 in 10.0 mi Calm Calm - N/A   Mostly Cloudy
10:57 AM 32.0 °F 27.5 °F 19.9 °F 61% 30.02 in 10.0 mi SW 4.6 mph - N/A   Mostly Cloudy
11:57 AM 36.0 °F 29.0 °F 19.9 °F 52% 30.00 in 10.0 mi SW 9.2 mph - N/A   Mostly Cloudy
12:57 PM 36.0 °F 28.0 °F 18.0 °F 48% 29.96 in 10.0 mi SW 11.5 mph - N/A   Overcast
1:57 PM 35.1 °F 28.6 °F 19.0 °F 52% 29.94 in 10.0 mi SSW 8.1 mph - N/A   Overcast
2:57 PM 36.0 °F 32.1 °F 19.9 °F 52% 29.92 in 10.0 mi SSW 4.6 mph - N/A   Overcast
3:57 PM 35.1 °F 30.1 °F 19.9 °F 54% 29.93 in 5.0 mi Variable 5.8 mph - 0.00 in Snow Light Snow
4:57 PM 35.1 °F 27.4 °F 19.9 °F 54% 29.95 in 10.0 mi WSW 10.4 mph - 0.00 in   Overcast
5:57 PM 32.0 °F 28.7 °F 24.1 °F 73% 29.98 in 9.0 mi West 3.5 mph - 0.00 in   Overcast
6:57 PM 28.0 °F - 21.0 °F 75% 30.02 in 10.0 mi Calm Calm - N/A   Partly Cloudy
7:57 PM 26.1 °F 20.5 °F 21.9 °F 84% 30.04 in 10.0 mi SW 4.6 mph - N/A   Clear
8:57 PM 26.1 °F 19.4 °F 21.0 °F 81% 30.01 in 10.0 mi SW 5.8 mph - N/A   Partly Cloudy
9:57 PM 28.0 °F 21.7 °F 23.0 °F 81% 30.01 in 10.0 mi WSW 5.8 mph - N/A   Mostly Cloudy
10:57 PM 25.0 °F - 21.0 °F 85% 30.02 in 10.0 mi Calm Calm - N/A   Partly Cloudy
11:57 PM 21.0 °F - 18.0 °F 88% 30.01 in 10.0 mi Calm Calm - N/A   Clear